Time,TemperatureF,DewpointF,PressureIn,WindDirection,WindDirectionDegrees,WindSpeedMPH,WindSpeedGustMPH,Humidity,HourlyPrecipIn,Conditions,Clouds,dailyrainin,SoftwareType,DateUTC
2013-01-14 00:04:00,37.3,35.7,29.92,SW,228,4.6,4.6,94,0.00,RA,,0.00,WeatherDisplay:10.37,2013-01-14 00:04:00,
2013-01-14 00:09:00,37.4,35.8,29.92,SW,228,3.5,3.5,94,0.00,RA,,0.00,WeatherDisplay:10.37,2013-01-14 00:09:00,
2013-01-14 00:14:00,37.4,35.8,29.91,SSW,212,8.1,8.1,94,0.00,CLR,,0.00,WeatherDisplay:10.37,2013-01-14 00:14:00,
2013-01-14 00:19:00,37.4,35.8,29.91,West,266,3.5,3.5,94,0.00,CLR,,0.00,WeatherDisplay:10.37,2013-01-14 00:19:00,
2013-01-14 00:24:00,37.3,35.7,29.91,West,266,3.5,3.5,94,0.00,CLR,,0.00,WeatherDisplay:10.37,2013-01-14 00:24:00,
2013-01-14 00:29:00,37.3,35.7,29.91,WNW,285,3.5,3.5,94,0.00,CLR,,0.00,WeatherDisplay:10.37,2013-01-14 00:29:00,
2013-01-14 00:34:00,37.3,35.7,29.91,WNW,288,3.5,3.5,94,0.00,CLR,,0.00,WeatherDisplay:10.37,2013-01-14 00:34:00,
2013-01-14 00:39:00,37.3,35.7,29.91,WNW,288,3.5,3.5,94,0.00,CLR,,0.00,WeatherDisplay:10.37,2013-01-14 00:39:00,
2013-01-14 00:44:00,37.2,35.6,29.92,WNW,288,3.5,3.5,94,0.00,CLR,,0.00,WeatherDisplay:10.37,2013-01-14 00:44:00,
2013-01-14 00:49:00,37.0,35.4,29.92,WNW,289,3.5,3.5,94,0.00,CLR,,0.00,WeatherDisplay:10.37,2013-01-14 00:49:00,
2013-01-14 00:54:00,36.9,35.3,29.92,WNW,288,0.0,0.0,94,0.00,CLR,,0.00,WeatherDisplay:10.37,2013-01-14 00:54:00,
2013-01-14 00:59:00,36.8,35.2,29.91,WNW,289,0.0,0.0,94,0.00,CLR,,0.00,WeatherDisplay:10.37,2013-01-14 00:59:00,
2013-01-14 01:04:00,36.7,35.1,29.91,WNW,288,0.0,0.0,94,0.00,CLR,,0.00,WeatherDisplay:10.37,2013-01-14 01:04:00,
2013-01-14 01:09:00,36.6,35.0,29.91,WNW,288,0.0,0.0,94,0.00,CLR,,0.00,WeatherDisplay:10.37,2013-01-14 01:09:00,
2013-01-14 01:14:00,36.4,34.8,29.90,WNW,288,0.0,0.0,94,0.00,CLR,,0.00,WeatherDisplay:10.37,2013-01-14 01:14:00,
2013-01-14 01:19:00,36.3,34.7,29.90,WNW,288,0.0,0.0,94,0.00,CLR,,0.00,WeatherDisplay:10.37,2013-01-14 01:19:00,
2013-01-14 01:24:00,36.2,34.6,29.90,WNW,288,2.3,2.3,94,0.00,CLR,,0.00,WeatherDisplay:10.37,2013-01-14 01:24:00,
2013-01-14 01:29:00,36.2,34.6,29.90,WNW,288,0.0,0.0,94,0.00,CLR,,0.00,WeatherDisplay:10.37,2013-01-14 01:29:00,
2013-01-14 01:34:00,36.1,34.5,29.90,WNW,289,0.0,0.0,94,0.00,CLR,,0.00,WeatherDisplay:10.37,2013-01-14 01:34:00,
2013-01-14 01:39:00,36.0,34.4,29.90,WNW,288,0.0,0.0,94,0.00,CLR,,0.00,WeatherDisplay:10.37,2013-01-14 01:39:00,
2013-01-14 01:44:00,36.0,34.4,29.90,WNW,288,0.0,0.0,94,0.00,CLR,,0.00,WeatherDisplay:10.37,2013-01-14 01:44:00,
2013-01-14 01:49:00,35.9,34.3,29.90,WNW,289,0.0,0.0,94,0.00,CLR,,0.00,WeatherDisplay:10.37,2013-01-14 01:49:00,
2013-01-14 01:54:00,35.8,34.2,29.90,WNW,288,0.0,0.0,94,0.00,CLR,,0.00,WeatherDisplay:10.37,2013-01-14 01:54:00,
2013-01-14 01:59:00,35.7,34.1,29.89,WNW,288,3.5,3.5,94,0.00,CLR,,0.00,WeatherDisplay:10.37,2013-01-14 01:59:00,
2013-01-14 02:04:00,35.9,34.6,29.89,WNW,288,0.0,0.0,95,0.00,CLR,,0.00,WeatherDisplay:10.37,2013-01-14 02:04:00,
2013-01-14 02:09:00,36.0,34.7,29.89,WNW,287,0.0,0.0,95,0.00,CLR,,0.00,WeatherDisplay:10.37,2013-01-14 02:09:00,
2013-01-14 02:14:00,36.0,34.7,29.88,WNW,288,3.5,3.5,95,0.00,CLR,,0.00,WeatherDisplay:10.37,2013-01-14 02:14:00,
2013-01-14 02:19:00,36.1,34.8,29.88,WNW,287,1.1,1.1,95,0.00,CLR,,0.00,WeatherDisplay:10.37,2013-01-14 02:19:00,
2013-01-14 02:24:00,36.2,34.9,29.88,WNW,288,1.1,1.1,95,0.00,CLR,,0.00,WeatherDisplay:10.37,2013-01-14 02:24:00,
2013-01-14 02:29:00,36.2,34.9,29.88,WNW,288,0.0,0.0,95,0.00,CLR,,0.00,WeatherDisplay:10.37,2013-01-14 02:29:00,
2013-01-14 02:34:00,36.2,34.9,29.88,WNW,287,3.5,3.5,95,0.00,CLR,,0.00,WeatherDisplay:10.37,2013-01-14 02:34:00,
2013-01-14 02:39:00,36.2,34.9,29.88,WNW,288,0.0,0.0,95,0.00,CLR,,0.00,WeatherDisplay:10.37,2013-01-14 02:39:00,
2013-01-14 02:44:00,36.2,34.9,29.87,WNW,288,3.5,3.5,95,0.00,CLR,,0.00,WeatherDisplay:10.37,2013-01-14 02:44:00,
2013-01-14 02:49:00,36.1,34.8,29.87,WNW,288,2.3,2.3,95,0.00,CLR,,0.00,WeatherDisplay:10.37,2013-01-14 02:49:00,
2013-01-14 02:54:00,36.1,34.8,29.87,WNW,288,2.3,2.3,95,0.00,CLR,,0.00,WeatherDisplay:10.37,2013-01-14 02:54:00,
2013-01-14 02:59:00,36.1,34.8,29.86,SW,227,2.3,2.3,95,0.00,CLR,,0.00,WeatherDisplay:10.37,2013-01-14 02:59:00,
2013-01-14 03:04:00,36.0,34.7,29.86,SW,226,0.0,0.0,95,0.00,CLR,,0.00,WeatherDisplay:10.37,2013-01-14 03:04:00,
2013-01-14 03:09:00,35.9,34.6,29.86,SW,227,0.0,0.0,95,0.00,CLR,,0.00,WeatherDisplay:10.37,2013-01-14 03:09:00,
2013-01-14 03:14:00,35.9,34.6,29.85,SW,227,0.0,0.0,95,0.00,CLR,,0.00,WeatherDisplay:10.37,2013-01-14 03:14:00,
2013-01-14 03:19:00,35.9,34.6,29.85,SW,227,0.0,0.0,95,0.00,CLR,,0.00,WeatherDisplay:10.37,2013-01-14 03:19:00,
2013-01-14 03:24:00,35.9,34.6,29.85,SW,227,2.3,2.3,95,0.00,CLR,,0.00,WeatherDisplay:10.37,2013-01-14 03:24:00,
2013-01-14 03:29:00,35.9,34.6,29.84,SW,227,0.0,0.0,95,0.00,CLR,,0.00,WeatherDisplay:10.37,2013-01-14 03:29:00,
2013-01-14 03:34:00,35.9,34.6,29.84,SW,227,0.0,0.0,95,0.00,CLR,,0.00,WeatherDisplay:10.37,2013-01-14 03:34:00,
2013-01-14 03:39:00,35.9,34.6,29.84,SW,227,1.1,0.0,95,0.00,CLR,,0.00,WeatherDisplay:10.37,2013-01-14 03:39:00,
2013-01-14 03:44:00,35.9,34.6,29.83,SW,227,1.1,1.1,95,0.00,CLR,,0.00,WeatherDisplay:10.37,2013-01-14 03:44:00,
2013-01-14 03:49:00,35.9,34.6,29.83,SW,227,3.5,3.5,95,0.00,CLR,,0.00,WeatherDisplay:10.37,2013-01-14 03:49:00,
2013-01-14 03:54:00,36.0,34.7,29.83,SW,227,1.1,0.0,95,0.00,CLR,,0.00,WeatherDisplay:10.37,2013-01-14 03:54:00,
2013-01-14 03:59:00,36.0,34.7,29.82,SW,227,0.0,0.0,95,0.00,CLR,,0.00,WeatherDisplay:10.37,2013-01-14 03:59:00,
2013-01-14 04:04:00,36.0,34.7,29.82,SW,227,0.0,0.0,95,0.00,CLR,,0.00,WeatherDisplay:10.37,2013-01-14 04:04:00,
2013-01-14 04:09:00,36.1,34.8,29.82,SW,227,0.0,0.0,95,0.00,CLR,,0.00,WeatherDisplay:10.37,2013-01-14 04:09:00,
2013-01-14 04:14:00,36.1,34.8,29.81,SW,227,1.1,1.1,95,0.00,CLR,,0.00,WeatherDisplay:10.37,2013-01-14 04:14:00,
2013-01-14 04:19:00,36.1,34.8,29.81,SW,227,0.0,0.0,95,0.00,CLR,,0.00,WeatherDisplay:10.37,2013-01-14 04:19:00,
2013-01-14 04:24:00,36.1,34.8,29.81,SW,227,2.3,2.3,95,0.00,CLR,,0.00,WeatherDisplay:10.37,2013-01-14 04:24:00,
2013-01-14 04:29:00,36.2,34.9,29.80,SW,226,0.0,0.0,95,0.00,CLR,,0.00,WeatherDisplay:10.37,2013-01-14 04:29:00,
2013-01-14 04:34:00,36.4,35.1,29.80,SSW,202,3.5,3.5,95,0.00,CLR,,0.00,WeatherDisplay:10.37,2013-01-14 04:34:00,
2013-01-14 04:39:00,36.5,35.5,29.80,South,184,3.5,3.5,96,0.00,CLR,,0.00,WeatherDisplay:10.37,2013-01-14 04:39:00,
2013-01-14 04:44:00,36.7,35.7,29.79,South,183,4.0,4.0,96,0.00,CLR,,0.00,WeatherDisplay:10.37,2013-01-14 04:44:00,
2013-01-14 04:49:00,36.8,35.5,29.79,South,183,3.5,3.5,95,0.00,CLR,,0.00,WeatherDisplay:10.37,2013-01-14 04:49:00,
2013-01-14 04:54:00,37.0,35.7,29.79,South,183,4.0,4.0,95,0.00,CLR,,0.00,WeatherDisplay:10.37,2013-01-14 04:54:00,
2013-01-14 04:59:00,37.2,36.2,29.78,SSE,167,4.6,4.6,96,0.00,CLR,,0.00,WeatherDisplay:10.37,2013-01-14 04:59:00,
2013-01-14 05:01:00,37.3,36.3,29.78,SSW,201,7.0,7.0,96,0.00,CLR,,0.00,WeatherDisplay:10.37,2013-01-14 05:01:00,
2013-01-14 05:03:00,37.3,36.3,29.78,South,190,6.0,6.0,96,0.00,CLR,,0.00,WeatherDisplay:10.37,2013-01-14 05:03:00,
2013-01-14 05:04:00,37.4,36.1,29.78,SSE,155,8.1,8.1,95,0.00,CLR,,0.00,WeatherDisplay:10.37,2013-01-14 05:04:00,
2013-01-14 05:06:00,37.4,36.1,29.78,South,184,6.9,6.9,95,0.00,CLR,,0.00,WeatherDisplay:10.37,2013-01-14 05:06:00,
2013-01-14 05:11:00,37.6,36.3,29.78,South,182,6.9,6.9,95,0.00,CLR,,0.01,WeatherDisplay:10.37,2013-01-14 05:11:00,
2013-01-14 05:16:00,37.7,36.4,29.77,SSE,167,5.8,5.8,95,0.01,RA,,0.01,WeatherDisplay:10.37,2013-01-14 05:16:00,
2013-01-14 05:21:00,37.8,36.5,29.77,South,189,5.8,5.8,95,0.01,RA,,0.01,WeatherDisplay:10.37,2013-01-14 05:21:00,
2013-01-14 05:26:00,37.9,36.6,29.77,South,186,5.8,5.8,95,0.02,RA,,0.02,WeatherDisplay:10.37,2013-01-14 05:26:00,
2013-01-14 05:31:00,37.9,36.6,29.76,SSE,163,6.9,6.9,95,0.02,RA,,0.02,WeatherDisplay:10.37,2013-01-14 05:31:00,
2013-01-14 05:36:00,38.0,36.7,29.76,SSE,157,5.8,5.8,95,0.02,CLR,,0.02,WeatherDisplay:10.37,2013-01-14 05:36:00,
2013-01-14 05:41:00,38.1,36.8,29.76,South,178,5.8,5.8,95,0.02,CLR,,0.02,WeatherDisplay:10.37,2013-01-14 05:41:00,
2013-01-14 05:46:00,38.3,37.0,29.75,SSE,153,9.2,9.2,95,0.02,CLR,,0.02,WeatherDisplay:10.37,2013-01-14 05:46:00,
2013-01-14 05:51:00,38.5,37.2,29.75,SSW,203,9.2,9.2,95,0.02,CLR,,0.02,WeatherDisplay:10.37,2013-01-14 05:51:00,
2013-01-14 05:56:00,38.7,37.4,29.75,SSE,159,10.4,10.4,95,0.02,CLR,,0.02,WeatherDisplay:10.37,2013-01-14 05:56:00,
2013-01-14 06:01:00,38.8,37.5,29.74,SSW,201,15.0,15.0,95,0.02,CLR,,0.02,WeatherDisplay:10.37,2013-01-14 06:01:00,
2013-01-14 06:06:00,38.9,37.3,29.74,SSW,198,16.1,16.1,94,0.02,CLR,,0.02,WeatherDisplay:10.37,2013-01-14 06:06:00,
2013-01-14 06:11:00,38.9,37.3,29.74,South,182,13.8,13.8,94,0.02,CLR,,0.02,WeatherDisplay:10.37,2013-01-14 06:11:00,
2013-01-14 06:16:00,39.0,37.1,29.74,South,191,13.8,13.8,93,0.01,CLR,,0.02,WeatherDisplay:10.37,2013-01-14 06:16:00,
2013-01-14 06:21:00,39.1,37.2,29.74,SW,227,11.5,11.5,93,0.02,RA,,0.02,WeatherDisplay:10.37,2013-01-14 06:21:00,
2013-01-14 06:26:00,39.1,37.2,29.74,South,173,10.4,10.4,93,0.01,RA,,0.02,WeatherDisplay:10.37,2013-01-14 06:26:00,
2013-01-14 06:31:00,39.1,37.2,29.74,South,191,6.9,6.9,93,0.01,CLR,,0.02,WeatherDisplay:10.37,2013-01-14 06:31:00,
2013-01-14 06:36:00,39.1,37.2,29.74,SSW,209,9.2,9.2,93,0.01,CLR,,0.02,WeatherDisplay:10.37,2013-01-14 06:36:00,
2013-01-14 06:41:00,39.0,37.1,29.74,SW,223,12.7,12.7,93,0.01,CLR,,0.02,WeatherDisplay:10.37,2013-01-14 06:41:00,
2013-01-14 06:46:00,38.9,37.0,29.74,SSW,193,11.5,11.5,93,0.01,CLR,,0.02,WeatherDisplay:10.37,2013-01-14 06:46:00,
2013-01-14 06:51:00,38.9,37.0,29.74,South,191,7.0,7.0,93,0.01,CLR,,0.02,WeatherDisplay:10.37,2013-01-14 06:51:00,
2013-01-14 06:56:00,38.9,37.0,29.74,SW,216,9.2,9.2,93,0.01,CLR,,0.02,WeatherDisplay:10.37,2013-01-14 06:56:00,
2013-01-14 07:01:00,38.9,37.0,29.74,SW,229,10.4,10.4,93,0.01,CLR,,0.02,WeatherDisplay:10.37,2013-01-14 07:01:00,
2013-01-14 07:06:00,38.9,37.0,29.74,South,190,6.9,6.9,93,0.01,CLR,,0.02,WeatherDisplay:10.37,2013-01-14 07:06:00,
2013-01-14 07:11:00,39.0,37.1,29.74,WSW,242,11.5,11.5,93,0.01,CLR,,0.02,WeatherDisplay:10.37,2013-01-14 07:11:00,
2013-01-14 07:16:00,39.1,37.2,29.75,West,261,6.0,6.0,93,0.01,CLR,,0.02,WeatherDisplay:10.37,2013-01-14 07:16:00,
2013-01-14 07:21:00,39.1,37.2,29.75,West,266,10.4,10.4,93,0.00,CLR,,0.02,WeatherDisplay:10.37,2013-01-14 07:21:00,
2013-01-14 07:26:00,39.2,37.3,29.75,SW,233,5.8,5.8,93,0.00,CLR,,0.02,WeatherDisplay:10.37,2013-01-14 07:26:00,
2013-01-14 07:31:00,39.3,37.4,29.74,SW,234,9.2,9.2,93,0.00,CLR,,0.02,WeatherDisplay:10.37,2013-01-14 07:31:00,
2013-01-14 07:36:00,39.4,37.5,29.74,WNW,295,13.8,13.8,93,0.00,CLR,,0.02,WeatherDisplay:10.37,2013-01-14 07:36:00,
2013-01-14 07:41:00,39.5,37.6,29.74,NW,313,5.8,5.8,93,0.00,CLR,,0.02,WeatherDisplay:10.37,2013-01-14 07:41:00,
2013-01-14 07:46:00,39.5,37.6,29.75,NW,311,6.9,6.9,93,0.00,CLR,,0.02,WeatherDisplay:10.37,2013-01-14 07:46:00,
2013-01-14 07:51:00,39.3,37.4,29.75,WNW,300,10.4,10.4,93,0.00,CLR,,0.02,WeatherDisplay:10.37,2013-01-14 07:51:00,
2013-01-14 07:56:00,39.0,37.1,29.75,WNW,293,8.1,8.1,93,0.00,CLR,,0.02,WeatherDisplay:10.37,2013-01-14 07:56:00,
2013-01-14 08:01:00,38.8,36.9,29.75,WNW,298,4.6,4.6,93,0.00,CLR,,0.02,WeatherDisplay:10.37,2013-01-14 08:01:00,
2013-01-14 08:06:00,38.5,36.9,29.75,WNW,290,6.9,6.9,94,0.00,CLR,,0.02,WeatherDisplay:10.37,2013-01-14 08:06:00,
2013-01-14 08:11:00,38.3,36.5,29.75,WNW,282,3.5,3.5,93,0.00,CLR,,0.02,WeatherDisplay:10.37,2013-01-14 08:11:00,
2013-01-14 08:16:00,37.9,36.3,29.75,WNW,283,5.8,5.8,94,0.00,CLR,,0.02,WeatherDisplay:10.37,2013-01-14 08:16:00,
2013-01-14 08:21:00,37.7,35.9,29.75,West,277,5.8,5.8,93,0.00,CLR,,0.02,WeatherDisplay:10.37,2013-01-14 08:21:00,
2013-01-14 08:26:00,37.4,35.6,29.75,West,278,5.8,5.8,93,0.00,CLR,,0.02,WeatherDisplay:10.37,2013-01-14 08:26:00,
2013-01-14 08:31:00,37.1,35.0,29.76,WNW,287,6.0,6.0,92,0.00,CLR,,0.02,WeatherDisplay:10.37,2013-01-14 08:31:00,
2013-01-14 08:36:00,37.0,34.9,29.76,West,275,4.6,4.6,92,0.00,CLR,,0.02,WeatherDisplay:10.37,2013-01-14 08:36:00,
2013-01-14 08:41:00,36.7,34.6,29.76,West,275,4.6,4.6,92,0.00,CLR,,0.02,WeatherDisplay:10.37,2013-01-14 08:41:00,
2013-01-14 08:46:00,36.5,34.4,29.76,West,275,4.0,4.0,92,0.00,CLR,,0.02,WeatherDisplay:10.37,2013-01-14 08:46:00,
2013-01-14 08:51:00,36.3,34.2,29.76,West,275,3.5,3.5,92,0.00,CLR,,0.02,WeatherDisplay:10.37,2013-01-14 08:51:00,
2013-01-14 08:56:00,36.0,33.9,29.76,NW,313,4.6,4.6,92,0.00,CLR,,0.02,WeatherDisplay:10.37,2013-01-14 08:56:00,
2013-01-14 09:01:00,35.9,33.8,29.76,West,269,3.5,3.5,92,0.00,CLR,,0.02,WeatherDisplay:10.37,2013-01-14 09:01:00,
2013-01-14 09:07:00,35.7,33.6,29.76,West,269,2.3,2.3,92,0.00,CLR,,0.02,WeatherDisplay:10.37,2013-01-14 09:07:00,
2013-01-14 09:12:00,35.5,33.4,29.76,ENE,60,2.3,2.3,92,0.00,CLR,,0.02,WeatherDisplay:10.37,2013-01-14 09:12:00,
2013-01-14 09:17:00,35.3,33.2,29.75,West,271,6.9,6.9,92,0.00,CLR,,0.02,WeatherDisplay:10.37,2013-01-14 09:17:00,
2013-01-14 09:22:00,35.3,33.2,29.75,WNW,284,8.1,8.1,92,0.00,CLR,,0.02,WeatherDisplay:10.37,2013-01-14 09:22:00,
2013-01-14 09:27:00,35.6,33.2,29.75,WNW,288,5.8,5.8,91,0.00,CLR,,0.02,WeatherDisplay:10.37,2013-01-14 09:27:00,
2013-01-14 09:32:00,35.9,33.3,29.75,WNW,289,4.0,4.0,90,0.00,CLR,,0.02,WeatherDisplay:10.37,2013-01-14 09:32:00,
2013-01-14 09:37:00,35.9,33.3,29.75,West,280,5.0,5.0,90,0.00,CLR,,0.02,WeatherDisplay:10.37,2013-01-14 09:37:00,
2013-01-14 09:42:00,35.9,33.3,29.75,West,264,3.5,3.5,90,0.00,CLR,,0.02,WeatherDisplay:10.37,2013-01-14 09:42:00,
2013-01-14 09:47:00,35.8,33.2,29.75,West,264,0.0,0.1,90,0.00,CLR,,0.02,WeatherDisplay:10.37,2013-01-14 09:47:00,
2013-01-14 09:52:00,35.7,33.1,29.75,SW,221,3.5,3.5,90,0.00,CLR,,0.02,WeatherDisplay:10.37,2013-01-14 09:52:00,
2013-01-14 09:57:00,35.7,33.1,29.75,WSW,252,2.3,2.3,90,0.00,CLR,,0.02,WeatherDisplay:10.37,2013-01-14 09:57:00,
2013-01-14 10:02:00,35.7,33.3,29.75,West,261,1.0,1.0,91,0.00,CLR,,0.02,WeatherDisplay:10.37,2013-01-14 10:02:00,
2013-01-14 10:07:00,35.7,33.3,29.75,SSE,148,2.3,2.3,91,0.00,CLR,,0.02,WeatherDisplay:10.37,2013-01-14 10:07:00,
2013-01-14 10:12:00,35.7,33.3,29.75,South,178,3.5,3.5,91,0.00,CLR,,0.02,WeatherDisplay:10.37,2013-01-14 10:12:00,
2013-01-14 10:17:00,35.7,33.3,29.74,South,179,3.5,3.5,91,0.00,CLR,,0.02,WeatherDisplay:10.37,2013-01-14 10:17:00,
2013-01-14 10:22:00,35.9,33.5,29.74,South,179,3.0,3.0,91,0.00,CLR,,0.02,WeatherDisplay:10.37,2013-01-14 10:22:00,
2013-01-14 10:27:00,36.3,33.6,29.74,SSW,212,3.5,3.5,90,0.00,CLR,,0.02,WeatherDisplay:10.37,2013-01-14 10:27:00,
2013-01-14 10:32:00,36.8,33.9,29.74,West,275,5.8,5.8,89,0.00,CLR,,0.02,WeatherDisplay:10.37,2013-01-14 10:32:00,
2013-01-14 10:37:00,37.2,34.0,29.74,WSW,255,8.1,8.1,88,0.00,CLR,,0.02,WeatherDisplay:10.37,2013-01-14 10:37:00,
2013-01-14 10:42:00,37.5,34.0,29.74,West,271,10.4,10.4,87,0.00,CLR,,0.02,WeatherDisplay:10.37,2013-01-14 10:42:00,
2013-01-14 10:47:00,37.7,34.2,29.74,West,267,5.8,5.8,87,0.00,CLR,,0.02,WeatherDisplay:10.37,2013-01-14 10:47:00,
2013-01-14 10:52:00,37.8,34.3,29.74,WSW,249,5.8,5.8,87,0.00,CLR,,0.02,WeatherDisplay:10.37,2013-01-14 10:52:00,
2013-01-14 10:57:00,37.9,34.4,29.74,West,265,5.8,5.8,87,0.00,CLR,,0.02,WeatherDisplay:10.37,2013-01-14 10:57:00,
2013-01-14 11:02:00,37.9,34.4,29.73,West,265,6.9,6.9,87,0.00,CLR,,0.02,WeatherDisplay:10.37,2013-01-14 11:02:00,
2013-01-14 11:07:00,37.9,34.1,29.73,West,281,5.8,5.8,86,0.00,CLR,,0.02,WeatherDisplay:10.37,2013-01-14 11:07:00,
2013-01-14 11:12:00,37.9,34.4,29.73,West,281,4.6,4.6,87,0.00,CLR,,0.02,WeatherDisplay:10.37,2013-01-14 11:12:00,
2013-01-14 11:17:00,37.9,34.4,29.73,West,281,3.5,3.5,87,0.00,CLR,,0.02,WeatherDisplay:10.37,2013-01-14 11:17:00,
2013-01-14 11:22:00,37.9,34.4,29.73,West,281,3.5,3.5,87,0.00,CLR,,0.02,WeatherDisplay:10.37,2013-01-14 11:22:00,
2013-01-14 11:27:00,37.9,34.4,29.73,West,280,5.0,5.0,87,0.00,CLR,,0.02,WeatherDisplay:10.37,2013-01-14 11:27:00,
2013-01-14 11:32:00,38.0,34.5,29.73,West,268,3.5,3.6,87,0.00,CLR,,0.02,WeatherDisplay:10.37,2013-01-14 11:32:00,
2013-01-14 11:37:00,38.0,34.2,29.73,West,277,5.8,5.8,86,0.00,CLR,,0.02,WeatherDisplay:10.37,2013-01-14 11:37:00,
2013-01-14 11:42:00,38.0,34.2,29.73,West,273,6.0,6.0,86,0.00,CLR,,0.02,WeatherDisplay:10.37,2013-01-14 11:42:00,
2013-01-14 11:47:00,38.2,34.4,29.73,West,271,9.2,9.2,86,0.00,CLR,,0.02,WeatherDisplay:10.37,2013-01-14 11:47:00,
2013-01-14 11:52:00,38.3,34.2,29.73,WNW,282,5.8,5.8,85,0.00,CLR,,0.02,WeatherDisplay:10.37,2013-01-14 11:52:00,
2013-01-14 11:57:00,38.4,34.3,29.73,WNW,287,6.9,6.9,85,0.00,CLR,,0.02,WeatherDisplay:10.37,2013-01-14 11:57:00,
2013-01-14 12:02:00,38.4,34.3,29.72,West,265,6.9,6.9,85,0.00,CLR,,0.02,WeatherDisplay:10.37,2013-01-14 12:02:00,
2013-01-14 12:07:00,38.4,34.3,29.72,West,276,5.8,5.8,85,0.00,CLR,,0.02,WeatherDisplay:10.37,2013-01-14 12:07:00,
2013-01-14 12:12:00,38.6,34.5,29.72,West,265,5.8,5.8,85,0.00,CLR,,0.02,WeatherDisplay:10.37,2013-01-14 12:12:00,
2013-01-14 12:17:00,38.8,34.7,29.72,West,275,9.2,9.2,85,0.00,CLR,,0.02,WeatherDisplay:10.37,2013-01-14 12:17:00,
2013-01-14 12:22:00,38.9,34.8,29.72,West,262,4.6,4.6,85,0.00,CLR,,0.02,WeatherDisplay:10.37,2013-01-14 12:22:00,
2013-01-14 12:27:00,39.2,35.1,29.72,West,262,5.8,5.8,85,0.00,CLR,,0.02,WeatherDisplay:10.37,2013-01-14 12:27:00,
2013-01-14 12:32:00,39.4,35.0,29.71,West,261,5.8,5.8,84,0.00,CLR,,0.02,WeatherDisplay:10.37,2013-01-14 12:32:00,
2013-01-14 12:37:00,39.5,35.1,29.71,WSW,254,4.6,4.6,84,0.00,CLR,,0.02,WeatherDisplay:10.37,2013-01-14 12:37:00,
2013-01-14 12:42:00,39.5,35.1,29.71,WSW,254,3.5,3.5,84,0.00,CLR,,0.02,WeatherDisplay:10.37,2013-01-14 12:42:00,
2013-01-14 12:47:00,39.5,34.8,29.71,West,272,5.0,5.0,83,0.00,CLR,,0.02,WeatherDisplay:10.37,2013-01-14 12:47:00,
2013-01-14 12:52:00,39.6,34.9,29.71,WNW,283,7.0,7.0,83,0.00,CLR,,0.02,WeatherDisplay:10.37,2013-01-14 12:52:00,
2013-01-14 12:57:00,39.8,34.8,29.71,WNW,286,9.2,9.2,82,0.00,CLR,,0.02,WeatherDisplay:10.37,2013-01-14 12:57:00,
2013-01-14 13:02:00,40.0,34.9,29.70,WNW,290,10.4,10.4,82,0.00,CLR,,0.02,WeatherDisplay:10.37,2013-01-14 13:02:00,
2013-01-14 13:07:00,40.0,34.9,29.70,WNW,292,10.4,10.4,82,0.00,CLR,,0.02,WeatherDisplay:10.37,2013-01-14 13:07:00,
2013-01-14 13:12:00,40.0,34.9,29.70,WNW,291,6.9,6.9,82,0.00,CLR,,0.02,WeatherDisplay:10.37,2013-01-14 13:12:00,
2013-01-14 13:17:00,40.0,34.9,29.70,West,276,6.0,6.0,82,0.00,CLR,,0.02,WeatherDisplay:10.37,2013-01-14 13:17:00,
2013-01-14 13:22:00,40.0,34.9,29.70,West,281,8.1,8.1,82,0.00,CLR,,0.02,WeatherDisplay:10.37,2013-01-14 13:22:00,
2013-01-14 13:27:00,39.9,35.2,29.70,WNW,294,6.9,6.9,83,0.00,CLR,,0.02,WeatherDisplay:10.37,2013-01-14 13:27:00,
2013-01-14 13:32:00,39.8,34.8,29.70,WNW,294,4.6,4.6,82,0.00,CLR,,0.02,WeatherDisplay:10.37,2013-01-14 13:32:00,
2013-01-14 13:37:00,39.7,35.0,29.70,WNW,293,3.5,3.5,83,0.00,CLR,,0.02,WeatherDisplay:10.37,2013-01-14 13:37:00,
2013-01-14 13:42:00,39.7,35.3,29.70,NW,316,3.5,3.5,84,0.00,CLR,,0.02,WeatherDisplay:10.37,2013-01-14 13:42:00,
2013-01-14 13:47:00,39.7,35.3,29.70,NW,316,2.3,0.0,84,0.00,CLR,,0.02,WeatherDisplay:10.37,2013-01-14 13:47:00,
2013-01-14 13:52:00,39.7,35.6,29.70,NW,315,1.1,1.1,85,0.00,CLR,,0.02,WeatherDisplay:10.37,2013-01-14 13:52:00,
2013-01-14 13:57:00,39.8,35.7,29.70,WNW,289,4.6,4.6,85,0.00,CLR,,0.02,WeatherDisplay:10.37,2013-01-14 13:57:00,
2013-01-14 14:02:00,40.5,36.3,29.70,WNW,289,3.5,3.5,85,0.00,CLR,,0.02,WeatherDisplay:10.37,2013-01-14 14:02:00,
2013-01-14 14:07:00,41.1,36.6,29.70,WNW,298,4.6,4.6,84,0.00,CLR,,0.02,WeatherDisplay:10.37,2013-01-14 14:07:00,
2013-01-14 14:12:00,41.3,35.9,29.70,WNW,300,5.8,5.8,81,0.00,CLR,,0.02,WeatherDisplay:10.37,2013-01-14 14:12:00,
2013-01-14 14:17:00,41.0,35.6,29.70,West,273,5.8,5.8,81,0.00,CLR,,0.02,WeatherDisplay:10.37,2013-01-14 14:17:00,
2013-01-14 14:22:00,40.9,35.5,29.70,NW,311,5.8,5.8,81,0.00,CLR,,0.02,WeatherDisplay:10.37,2013-01-14 14:22:00,
2013-01-14 14:27:00,41.0,35.6,29.70,WNW,300,11.5,11.5,81,0.00,CLR,,0.02,WeatherDisplay:10.37,2013-01-14 14:27:00,
2013-01-14 14:32:00,41.5,35.8,29.70,WNW,291,5.8,5.8,80,0.00,CLR,,0.02,WeatherDisplay:10.37,2013-01-14 14:32:00,
2013-01-14 14:37:00,42.1,36.1,29.70,NW,305,6.9,6.9,79,0.00,CLR,,0.02,WeatherDisplay:10.37,2013-01-14 14:37:00,
2013-01-14 14:42:00,42.5,36.1,29.70,West,279,6.9,6.9,78,0.00,CLR,,0.02,WeatherDisplay:10.37,2013-01-14 14:42:00,
2013-01-14 14:47:00,42.7,35.7,29.70,NW,305,6.9,6.9,76,0.00,CLR,,0.02,WeatherDisplay:10.37,2013-01-14 14:47:00,
2013-01-14 14:52:00,42.5,35.1,29.70,West,279,10.4,10.4,75,0.00,CLR,,0.02,WeatherDisplay:10.37,2013-01-14 14:52:00,
2013-01-14 14:57:00,42.1,35.4,29.70,WNW,303,9.2,9.2,77,0.00,CLR,,0.02,WeatherDisplay:10.37,2013-01-14 14:57:00,
2013-01-14 15:02:00,41.7,35.0,29.70,WNW,302,3.5,3.5,77,0.00,CLR,,0.02,WeatherDisplay:10.37,2013-01-14 15:02:00,
2013-01-14 15:07:00,41.2,34.5,29.70,NW,318,5.8,5.8,77,0.00,CLR,,0.02,WeatherDisplay:10.37,2013-01-14 15:07:00,
2013-01-14 15:12:00,40.5,34.2,29.70,NW,306,5.8,5.8,78,0.00,CLR,,0.02,WeatherDisplay:10.37,2013-01-14 15:12:00,
2013-01-14 15:17:00,40.1,33.8,29.70,WNW,284,5.8,5.8,78,0.00,CLR,,0.02,WeatherDisplay:10.37,2013-01-14 15:17:00,
2013-01-14 15:22:00,39.8,33.8,29.70,West,273,4.0,4.0,79,0.00,CLR,,0.02,WeatherDisplay:10.37,2013-01-14 15:22:00,
2013-01-14 15:27:00,39.5,33.8,29.70,West,275,5.8,5.8,80,0.00,CLR,,0.02,WeatherDisplay:10.37,2013-01-14 15:27:00,
2013-01-14 15:32:00,39.2,33.9,29.70,West,273,5.8,5.8,81,0.00,CLR,,0.02,WeatherDisplay:10.37,2013-01-14 15:32:00,
2013-01-14 15:37:00,38.9,33.6,29.70,West,273,6.9,6.9,81,0.00,CLR,,0.02,WeatherDisplay:10.37,2013-01-14 15:37:00,
2013-01-14 15:42:00,38.7,33.7,29.70,West,273,4.6,4.6,82,0.00,CLR,,0.02,WeatherDisplay:10.37,2013-01-14 15:42:00,
2013-01-14 15:47:00,38.5,33.5,29.70,West,273,4.6,4.6,82,0.00,CLR,,0.02,WeatherDisplay:10.37,2013-01-14 15:47:00,
2013-01-14 15:52:00,38.3,33.3,29.70,West,264,3.5,3.5,82,0.00,CLR,,0.02,WeatherDisplay:10.37,2013-01-14 15:52:00,
2013-01-14 15:57:00,38.1,33.1,29.70,West,264,3.5,3.5,82,0.00,CLR,,0.02,WeatherDisplay:10.37,2013-01-14 15:57:00,
2013-01-14 16:02:00,37.8,32.8,29.70,West,265,2.3,2.3,82,0.00,CLR,,0.02,WeatherDisplay:10.37,2013-01-14 16:02:00,
2013-01-14 16:07:00,37.5,32.8,29.70,SW,236,3.5,3.5,83,0.00,CLR,,0.02,WeatherDisplay:10.37,2013-01-14 16:07:00,
2013-01-14 16:12:00,37.2,32.8,29.70,WSW,249,4.6,4.6,84,0.00,CLR,,0.02,WeatherDisplay:10.37,2013-01-14 16:12:00,
2013-01-14 16:17:00,37.0,32.6,29.70,WSW,249,3.5,3.5,84,0.00,CLR,,0.02,WeatherDisplay:10.37,2013-01-14 16:17:00,
2013-01-14 16:22:00,36.7,32.3,29.70,WSW,249,4.0,4.0,84,0.00,CLR,,0.02,WeatherDisplay:10.37,2013-01-14 16:22:00,
2013-01-14 16:27:00,36.4,32.3,29.70,WSW,250,3.5,3.5,85,0.00,CLR,,0.02,WeatherDisplay:10.37,2013-01-14 16:27:00,
2013-01-14 16:32:00,36.2,32.1,29.70,WSW,256,4.6,4.6,85,0.00,CLR,,0.02,WeatherDisplay:10.37,2013-01-14 16:32:00,
2013-01-14 16:37:00,36.0,31.9,29.70,WSW,258,4.6,4.6,85,0.00,CLR,,0.02,WeatherDisplay:10.37,2013-01-14 16:37:00,
2013-01-14 16:42:00,35.9,32.1,29.70,WSW,258,5.0,5.0,86,0.00,CLR,,0.02,WeatherDisplay:10.37,2013-01-14 16:42:00,
2013-01-14 16:47:00,35.7,31.9,29.70,West,263,6.0,6.0,86,0.00,CLR,,0.02,WeatherDisplay:10.37,2013-01-14 16:47:00,
2013-01-14 16:52:00,35.7,31.9,29.70,West,265,4.6,4.6,86,0.00,CLR,,0.02,WeatherDisplay:10.37,2013-01-14 16:52:00,
2013-01-14 16:57:00,35.6,31.8,29.70,West,265,5.0,5.0,86,0.00,CLR,,0.02,WeatherDisplay:10.37,2013-01-14 16:57:00,
2013-01-14 17:02:00,35.6,31.8,29.70,West,268,6.9,6.9,86,0.00,CLR,,0.02,WeatherDisplay:10.37,2013-01-14 17:02:00,
2013-01-14 17:07:00,35.5,31.7,29.70,West,268,6.0,6.0,86,0.00,CLR,,0.02,WeatherDisplay:10.37,2013-01-14 17:07:00,
2013-01-14 17:12:00,35.5,31.7,29.70,West,267,7.0,7.0,86,0.00,CLR,,0.02,WeatherDisplay:10.37,2013-01-14 17:12:00,
2013-01-14 17:17:00,35.5,31.7,29.70,West,279,9.2,9.2,86,0.00,CLR,,0.02,WeatherDisplay:10.37,2013-01-14 17:17:00,
2013-01-14 17:22:00,35.4,31.6,29.70,West,279,5.8,5.8,86,0.00,CLR,,0.02,WeatherDisplay:10.37,2013-01-14 17:22:00,
2013-01-14 17:27:00,35.4,31.6,29.70,West,272,4.6,4.6,86,0.00,CLR,,0.02,WeatherDisplay:10.37,2013-01-14 17:27:00,
2013-01-14 17:32:00,35.4,31.6,29.70,West,277,5.8,5.8,86,0.00,CLR,,0.02,WeatherDisplay:10.37,2013-01-14 17:32:00,
2013-01-14 17:37:00,35.3,31.2,29.70,West,274,6.9,6.9,85,0.00,CLR,,0.02,WeatherDisplay:10.37,2013-01-14 17:37:00,
2013-01-14 17:42:00,35.3,31.2,29.70,West,273,3.5,3.5,85,0.00,CLR,,0.02,WeatherDisplay:10.37,2013-01-14 17:42:00,
2013-01-14 17:47:00,35.3,31.2,29.70,West,273,2.3,2.3,85,0.00,CLR,,0.02,WeatherDisplay:10.37,2013-01-14 17:47:00,
2013-01-14 17:52:00,35.1,31.0,29.70,West,273,3.5,3.5,85,0.00,CLR,,0.02,WeatherDisplay:10.37,2013-01-14 17:52:00,
2013-01-14 17:57:00,35.0,31.2,29.70,West,273,3.5,3.5,86,0.00,CLR,,0.02,WeatherDisplay:10.37,2013-01-14 17:57:00,
2013-01-14 18:02:00,34.8,31.0,29.71,West,273,0.0,0.0,86,0.00,CLR,,0.02,WeatherDisplay:10.37,2013-01-14 18:02:00,
2013-01-14 18:07:00,34.7,30.9,29.71,West,273,1.1,1.1,86,0.00,CLR,,0.02,WeatherDisplay:10.37,2013-01-14 18:07:00,
2013-01-14 18:12:00,34.6,30.8,29.71,West,273,1.1,0.0,86,0.00,CLR,,0.02,WeatherDisplay:10.37,2013-01-14 18:12:00,
2013-01-14 18:17:00,34.5,30.7,29.71,West,273,2.3,2.3,86,0.00,CLR,,0.02,WeatherDisplay:10.37,2013-01-14 18:17:00,
2013-01-14 18:22:00,34.4,30.6,29.71,West,273,3.0,3.0,86,0.00,CLR,,0.02,WeatherDisplay:10.37,2013-01-14 18:22:00,
2013-01-14 18:27:00,34.5,31.0,29.71,West,273,3.5,3.5,87,0.00,CLR,,0.02,WeatherDisplay:10.37,2013-01-14 18:27:00,
2013-01-14 18:32:00,34.6,31.1,29.71,West,273,3.5,3.5,87,0.00,CLR,,0.02,WeatherDisplay:10.37,2013-01-14 18:32:00,
2013-01-14 18:37:00,34.5,30.7,29.71,West,273,2.3,2.3,86,0.00,CLR,,0.02,WeatherDisplay:10.37,2013-01-14 18:37:00,
2013-01-14 18:42:00,34.4,30.6,29.71,West,273,3.5,3.5,86,0.00,CLR,,0.02,WeatherDisplay:10.37,2013-01-14 18:42:00,
2013-01-14 18:47:00,34.4,30.6,29.72,West,273,3.5,3.5,86,0.00,CLR,,0.02,WeatherDisplay:10.37,2013-01-14 18:47:00,
2013-01-14 18:52:00,34.3,30.5,29.72,West,273,4.6,4.6,86,0.00,CLR,,0.02,WeatherDisplay:10.37,2013-01-14 18:52:00,
2013-01-14 18:57:00,34.2,30.7,29.72,West,273,3.5,3.5,87,0.00,CLR,,0.02,WeatherDisplay:10.37,2013-01-14 18:57:00,
2013-01-14 19:02:00,34.1,30.6,29.72,West,273,3.5,3.5,87,0.00,CLR,,0.02,WeatherDisplay:10.37,2013-01-14 19:02:00,
2013-01-14 19:07:00,34.0,30.5,29.72,West,274,2.3,2.3,87,0.00,CLR,,0.02,WeatherDisplay:10.37,2013-01-14 19:07:00,
2013-01-14 19:12:00,33.9,30.4,29.72,West,273,4.0,4.0,87,0.00,CLR,,0.02,WeatherDisplay:10.37,2013-01-14 19:12:00,
2013-01-14 19:17:00,33.8,30.3,29.72,West,273,3.5,3.5,87,0.00,CLR,,0.02,WeatherDisplay:10.37,2013-01-14 19:17:00,
2013-01-14 19:22:00,33.8,30.3,29.72,West,273,2.3,2.3,87,0.00,CLR,,0.02,WeatherDisplay:10.37,2013-01-14 19:22:00,
2013-01-14 19:28:00,33.8,30.3,29.72,West,273,2.3,2.3,87,0.00,CLR,,0.02,WeatherDisplay:10.37,2013-01-14 19:28:00,
2013-01-14 19:33:00,33.7,30.2,29.73,West,273,2.3,2.3,87,0.00,CLR,,0.02,WeatherDisplay:10.37,2013-01-14 19:33:00,
2013-01-14 19:38:00,33.5,30.0,29.73,West,273,0.0,0.0,87,0.00,CLR,,0.02,WeatherDisplay:10.37,2013-01-14 19:38:00,
2013-01-14 19:43:00,33.4,29.9,29.73,West,273,0.0,0.0,87,0.00,CLR,,0.02,WeatherDisplay:10.37,2013-01-14 19:43:00,
2013-01-14 19:48:00,33.2,29.8,29.74,West,273,2.3,2.3,87,0.00,CLR,,0.02,WeatherDisplay:10.37,2013-01-14 19:48:00,
2013-01-14 19:53:00,33.1,29.9,29.74,West,273,4.6,4.6,88,0.00,CLR,,0.02,WeatherDisplay:10.37,2013-01-14 19:53:00,
2013-01-14 19:58:00,33.0,29.8,29.74,West,273,3.5,3.5,88,0.00,CLR,,0.02,WeatherDisplay:10.37,2013-01-14 19:58:00,
2013-01-14 20:03:00,33.0,29.8,29.74,West,273,3.5,3.5,88,0.00,CLR,,0.02,WeatherDisplay:10.37,2013-01-14 20:03:00,
2013-01-14 20:08:00,33.1,30.2,29.74,West,273,3.5,3.5,89,0.00,CLR,,0.02,WeatherDisplay:10.37,2013-01-14 20:08:00,
2013-01-14 20:13:00,33.2,30.3,29.74,West,274,3.5,3.5,89,0.00,CLR,,0.02,WeatherDisplay:10.37,2013-01-14 20:13:00,
2013-01-14 20:18:00,33.4,30.5,29.74,West,273,4.6,4.6,89,0.00,CLR,,0.02,WeatherDisplay:10.37,2013-01-14 20:18:00,
2013-01-14 20:23:00,33.8,30.6,29.74,WNW,292,5.0,5.0,88,0.00,CLR,,0.02,WeatherDisplay:10.37,2013-01-14 20:23:00,
2013-01-14 20:28:00,34.3,30.8,29.74,WNW,292,3.5,3.5,87,0.00,CLR,,0.02,WeatherDisplay:10.37,2013-01-14 20:28:00,
2013-01-14 20:33:00,34.6,31.1,29.74,WNW,292,2.0,2.0,87,0.00,CLR,,0.02,WeatherDisplay:10.37,2013-01-14 20:33:00,
2013-01-14 20:38:00,34.6,30.8,29.74,WNW,292,2.3,2.3,86,0.00,CLR,,0.02,WeatherDisplay:10.37,2013-01-14 20:38:00,
2013-01-14 20:43:00,34.6,30.6,29.74,WNW,292,2.3,2.3,85,0.00,CLR,,0.02,WeatherDisplay:10.37,2013-01-14 20:43:00,
2013-01-14 20:48:00,34.4,30.4,29.74,WNW,292,1.1,0.0,85,0.00,CLR,,0.02,WeatherDisplay:10.37,2013-01-14 20:48:00,
2013-01-14 20:53:00,34.3,30.5,29.74,WNW,292,0.0,0.0,86,0.00,CLR,,0.02,WeatherDisplay:10.37,2013-01-14 20:53:00,
2013-01-14 20:58:00,34.1,30.4,29.74,WNW,292,1.1,1.1,86,0.00,CLR,,0.02,WeatherDisplay:10.37,2013-01-14 20:58:00,
2013-01-14 21:03:00,33.9,30.2,29.74,WNW,292,2.3,2.3,86,0.00,CLR,,0.02,WeatherDisplay:10.37,2013-01-14 21:03:00,
2013-01-14 21:08:00,33.8,30.1,29.74,WNW,292,0.0,0.0,86,0.00,CLR,,0.02,WeatherDisplay:10.37,2013-01-14 21:08:00,
2013-01-14 21:13:00,33.7,30.2,29.74,WNW,292,0.0,0.0,87,0.00,CLR,,0.02,WeatherDisplay:10.37,2013-01-14 21:13:00,
2013-01-14 21:18:00,33.6,30.1,29.74,WNW,292,2.3,2.3,87,0.00,CLR,,0.02,WeatherDisplay:10.37,2013-01-14 21:18:00,
2013-01-14 21:23:00,33.5,30.3,29.74,WNW,292,3.5,3.5,88,0.00,CLR,,0.02,WeatherDisplay:10.37,2013-01-14 21:23:00,
2013-01-14 21:28:00,33.6,30.4,29.74,WNW,292,0.0,0.0,88,0.00,CLR,,0.02,WeatherDisplay:10.37,2013-01-14 21:28:00,
2013-01-14 21:33:00,33.7,30.5,29.75,WNW,292,2.3,2.3,88,0.00,CLR,,0.02,WeatherDisplay:10.37,2013-01-14 21:33:00,
2013-01-14 21:38:00,33.7,30.5,29.75,WNW,292,0.0,0.0,88,0.00,CLR,,0.02,WeatherDisplay:10.37,2013-01-14 21:38:00,
2013-01-14 21:43:00,33.6,30.4,29.75,WNW,292,3.5,3.5,88,0.00,CLR,,0.02,WeatherDisplay:10.37,2013-01-14 21:43:00,
2013-01-14 21:48:00,33.5,30.3,29.75,WNW,292,2.3,2.3,88,0.00,CLR,,0.02,WeatherDisplay:10.37,2013-01-14 21:48:00,
2013-01-14 21:53:00,33.4,30.2,29.75,WNW,292,1.1,1.1,88,0.00,CLR,,0.02,WeatherDisplay:10.37,2013-01-14 21:53:00,
2013-01-14 21:58:00,33.4,30.5,29.75,WNW,291,2.3,2.3,89,0.00,CLR,,0.02,WeatherDisplay:10.37,2013-01-14 21:58:00,
2013-01-14 22:03:00,33.4,30.5,29.75,WNW,292,2.3,2.3,89,0.00,CLR,,0.02,WeatherDisplay:10.37,2013-01-14 22:03:00,
2013-01-14 22:08:00,33.5,30.6,29.75,WNW,292,2.3,2.3,89,0.00,CLR,,0.02,WeatherDisplay:10.37,2013-01-14 22:08:00,
2013-01-14 22:13:00,33.5,30.6,29.75,WNW,292,0.0,0.0,89,0.00,CLR,,0.02,WeatherDisplay:10.37,2013-01-14 22:13:00,
2013-01-14 22:19:00,33.5,30.6,29.75,WNW,292,3.5,3.5,89,0.00,CLR,,0.02,WeatherDisplay:10.37,2013-01-14 22:19:00,
2013-01-14 22:24:00,33.7,30.8,29.75,WNW,292,3.5,3.5,89,0.00,CLR,,0.02,WeatherDisplay:10.37,2013-01-14 22:24:00,
2013-01-14 22:29:00,34.1,31.2,29.75,WNW,292,2.3,2.3,89,0.00,CLR,,0.02,WeatherDisplay:10.37,2013-01-14 22:29:00,
2013-01-14 22:34:00,34.4,31.2,29.75,WNW,287,3.5,3.5,88,0.00,CLR,,0.02,WeatherDisplay:10.37,2013-01-14 22:34:00,
2013-01-14 22:39:00,34.8,31.6,29.75,WNW,287,2.0,2.0,88,0.00,CLR,,0.02,WeatherDisplay:10.37,2013-01-14 22:39:00,
2013-01-14 22:44:00,35.0,31.5,29.75,WNW,287,2.3,2.3,87,0.00,CLR,,0.02,WeatherDisplay:10.37,2013-01-14 22:44:00,
2013-01-14 22:49:00,35.1,31.6,29.75,WNW,287,0.0,0.0,87,0.00,CLR,,0.02,WeatherDisplay:10.37,2013-01-14 22:49:00,
2013-01-14 22:54:00,35.2,31.7,29.75,WNW,287,0.0,0.0,87,0.00,CLR,,0.02,WeatherDisplay:10.37,2013-01-14 22:54:00,
2013-01-14 22:59:00,35.2,31.7,29.75,WNW,287,0.0,0.0,87,0.00,CLR,,0.02,WeatherDisplay:10.37,2013-01-14 22:59:00,
2013-01-14 23:04:00,35.2,31.7,29.76,WNW,287,0.0,0.0,87,0.00,CLR,,0.02,WeatherDisplay:10.37,2013-01-14 23:04:00,
2013-01-14 23:09:00,35.2,31.7,29.76,WNW,287,1.1,1.1,87,0.00,CLR,,0.02,WeatherDisplay:10.37,2013-01-14 23:09:00,
2013-01-14 23:14:00,35.1,31.6,29.76,WNW,287,2.3,2.3,87,0.00,CLR,,0.02,WeatherDisplay:10.37,2013-01-14 23:14:00,
2013-01-14 23:19:00,35.2,32.0,29.76,WNW,287,2.0,2.0,88,0.00,CLR,,0.02,WeatherDisplay:10.37,2013-01-14 23:19:00,
2013-01-14 23:24:00,35.2,32.0,29.76,West,281,4.6,4.6,88,0.00,CLR,,0.02,WeatherDisplay:10.37,2013-01-14 23:24:00,
2013-01-14 23:29:00,35.3,32.1,29.76,West,281,4.6,4.6,88,0.00,CLR,,0.02,WeatherDisplay:10.37,2013-01-14 23:29:00,
2013-01-14 23:34:00,35.4,31.9,29.77,West,281,3.5,3.5,87,0.00,CLR,,0.02,WeatherDisplay:10.37,2013-01-14 23:34:00,
2013-01-14 23:39:00,35.5,32.0,29.77,West,281,0.0,0.0,87,0.00,CLR,,0.02,WeatherDisplay:10.37,2013-01-14 23:39:00,
2013-01-14 23:44:00,35.5,32.0,29.77,West,281,0.0,0.0,87,0.00,CLR,,0.02,WeatherDisplay:10.37,2013-01-14 23:44:00,
2013-01-14 23:49:00,35.5,32.0,29.77,West,281,0.0,0.0,87,0.00,CLR,,0.02,WeatherDisplay:10.37,2013-01-14 23:49:00,
2013-01-14 23:54:00,35.4,31.9,29.77,West,281,0.0,0.2,87,0.00,CLR,,0.02,WeatherDisplay:10.37,2013-01-14 23:54:00,
2013-01-14 23:59:00,35.4,31.9,29.78,WNW,282,3.0,3.0,87,0.00,CLR,,0.02,WeatherDisplay:10.37,2013-01-14 23:59:00,